�������l�o���
Date,Time,MP-1(��Sv/h),MP-2(��Sv/h),MP-3(��Sv/h),MP-4(��Sv/h),MP-5(��Sv/h),MP-6(��Sv/h),MP-7(��Sv/h),MP-8(��Sv/h),����,����(m/s),���J
2021/07/31,00:00,0.599,0.891,0.565,1.080,0.763,0.365,0.630,0.591,�k�k��,1.4,��
2021/07/31,00:10,0.599,0.889,0.565,1.078,0.763,0.366,0.632,0.591,�k,0.9,��
2021/07/31,00:20,0.600,0.890,0.565,1.080,0.763,0.366,0.632,0.592,�k,0.9,��
2021/07/31,00:30,0.599,0.889,0.565,1.078,0.762,0.366,0.632,0.591,�k�k��,1.4,��
2021/07/31,00:40,0.598,0.889,0.565,1.079,0.764,0.365,0.633,0.590,�k�k��,1.4,��
2021/07/31,00:50,0.599,0.889,0.564,1.079,0.763,0.365,0.630,0.591,�k�k��,1.5,��
2021/07/31,01:00,0.600,0.890,0.564,1.081,0.764,0.366,0.630,0.593,�k�k��,1.7,��
2021/07/31,01:10,0.598,0.889,0.565,1.081,0.764,0.366,0.631,0.592,�k,1.7,��
2021/07/31,01:20,0.599,0.889,0.563,1.080,0.762,0.366,0.631,0.592,�k�k��,2.0,��
2021/07/31,01:30,0.598,0.890,0.563,1.081,0.765,0.367,0.633,0.591,�k�k��,2.0,��
2021/07/31,01:40,0.599,0.890,0.567,1.078,0.763,0.366,0.632,0.590,�k�k��,2.0,��
2021/07/31,01:50,0.601,0.889,0.567,1.080,0.765,0.366,0.631,0.591,�k�k��,1.7,��
2021/07/31,02:00,0.598,0.889,0.565,1.079,0.765,0.365,0.630,0.591,�k,1.7,��
2021/07/31,02:10,0.598,0.890,0.564,1.079,0.764,0.367,0.632,0.590,�k,1.5,��
2021/07/31,02:20,0.597,0.892,0.565,1.079,0.765,0.365,0.631,0.590,�k�k��,1.9,��
2021/07/31,02:30,0.599,0.889,0.566,1.081,0.761,0.367,0.631,0.592,�k�k��,1.2,��
2021/07/31,02:40,0.599,0.891,0.566,1.080,0.762,0.365,0.631,0.591,�k,1.5,��
2021/07/31,02:50,0.599,0.890,0.566,1.081,0.764,0.366,0.632,0.592,�k�k��,1.7,��
2021/07/31,03:00,0.600,0.889,0.565,1.080,0.762,0.365,0.630,0.591,�k�k��,1.7,��
2021/07/31,03:10,0.598,0.889,0.566,1.080,0.763,0.365,0.631,0.592,�k��,2.3,��
2021/07/31,03:20,0.598,0.892,0.566,1.080,0.764,0.367,0.630,0.591,�k��,2.3,��
2021/07/31,03:30,0.598,0.891,0.567,1.081,0.763,0.366,0.633,0.591,�k�k��,1.9,��
2021/07/31,03:40,0.598,0.889,0.565,1.080,0.763,0.366,0.630,0.592,�k�k��,2.3,��
2021/07/31,03:50,0.599,0.890,0.565,1.081,0.762,0.366,0.631,0.592,�k�k��,2.2,��
2021/07/31,04:00,0.599,0.890,0.565,1.080,0.763,0.365,0.632,0.591,�k��,3.2,��
2021/07/31,04:10,0.599,0.889,0.566,1.079,0.765,0.364,0.631,0.591,�k��,3.2,��
2021/07/31,04:20,0.599,0.891,0.565,1.080,0.762,0.365,0.630,0.592,�k��,3.1,��
2021/07/31,04:30,0.598,0.888,0.566,1.080,0.764,0.366,0.632,0.591,�k�k��,3.2,��
2021/07/31,04:40,0.599,0.889,0.566,1.079,0.762,0.365,0.631,0.593,�k�k��,3.7,��
2021/07/31,04:50,0.600,0.890,0.566,1.082,0.764,0.366,0.632,0.592,�k�k��,4.4,��
2021/07/31,05:00,0.598,0.889,0.564,1.080,0.763,0.365,0.631,0.593,�k,3.8,��
2021/07/31,05:10,0.598,0.887,0.565,1.080,0.762,0.365,0.630,0.590,�k,4.0,��
2021/07/31,05:20,0.598,0.890,0.566,1.082,0.762,0.366,0.631,0.592,�k,4.3,��
2021/07/31,05:30,0.599,0.888,0.566,1.079,0.764,0.366,0.633,0.592,�k,3.9,��
2021/07/31,05:40,0.598,0.890,0.566,1.081,0.764,0.366,0.632,0.593,�k�k��,4.2,��
2021/07/31,05:50,0.601,0.892,0.566,1.080,0.763,0.367,0.632,0.593,�k�k��,3.9,��
2021/07/31,06:00,0.598,0.889,0.566,1.081,0.764,0.366,0.633,0.593,�k�k��,3.5,��
2021/07/31,06:10,0.600,0.890,0.568,1.081,0.764,0.366,0.632,0.592,�k�k��,3.5,��
2021/07/31,06:20,0.599,0.890,0.566,1.081,0.764,0.366,0.631,0.593,�k�k��,3.7,�L
2021/07/31,06:30,0.598,0.889,0.566,1.080,0.763,0.366,0.631,0.592,�k�k��,3.8,��
2021/07/31,06:40,0.598,0.888,0.566,1.082,0.763,0.365,0.631,0.593,�k�k��,3.6,��
2021/07/31,06:50,0.599,0.890,0.564,1.081,0.764,0.366,0.630,0.593,�k�k��,3.4,��
2021/07/31,07:00,0.598,0.890,0.565,1.082,0.763,0.364,0.632,0.592,�k�k��,2.9,��
2021/07/31,07:10,0.597,0.889,0.564,1.079,0.764,0.365,0.632,0.592,�k�k��,3.0,��
2021/07/31,07:20,0.597,0.890,0.566,1.081,0.762,0.364,0.632,0.592,�k�k��,2.9,��
2021/07/31,07:30,0.597,0.890,0.566,1.079,0.763,0.364,0.631,0.592,�k,2.5,�L
2021/07/31,07:40,0.597,0.890,0.565,1.080,0.764,0.363,0.631,0.592,�k�k��,4.9,�L
2021/07/31,07:50,0.597,0.889,0.564,1.079,0.763,0.365,0.632,0.591,�k�k��,4.6,��
2021/07/31,08:00,0.598,0.890,0.564,1.078,0.763,0.362,0.630,0.592,�k�k��,4.6,��
2021/07/31,08:10,0.595,0.889,0.565,1.080,0.763,0.364,0.630,0.593,�k�k��,4.9,��
2021/07/31,08:20,0.597,0.890,0.563,1.080,0.764,0.364,0.629,0.591,�k�k��,5.0,��
2021/07/31,08:30,0.596,0.890,0.564,1.080,0.762,0.364,0.632,0.591,�k�k��,4.4,��
2021/07/31,08:40,0.597,0.890,0.564,1.080,0.764,0.364,0.629,0.589,�k�k��,4.4,��
2021/07/31,08:50,0.597,0.889,0.564,1.077,0.763,0.364,0.632,0.590,�k�k��,4.0,��
2021/07/31,09:00,0.600,0.888,0.564,1.082,0.763,0.364,0.630,0.588,�k�k��,4.6,��
2021/07/31,09:10,0.597,0.889,0.565,1.080,0.762,0.364,0.630,0.590,�k�k��,4.8,��
2021/07/31,09:20,0.599,0.888,0.566,1.078,0.763,0.366,0.632,0.590,�k��,5.1,��
2021/07/31,09:30,0.597,0.890,0.565,1.080,0.763,0.365,0.630,0.592,�k��,5.5,��
2021/07/31,09:40,0.596,0.889,0.565,1.080,0.763,0.364,0.631,0.591,�k��,4.9,��
2021/07/31,09:50,0.598,0.888,0.563,1.079,0.764,0.365,0.630,0.591,�k�k��,5.0,��
2021/07/31,10:00,0.599,0.887,0.563,1.081,0.764,0.365,0.629,0.591,�k�k��,5.1,��
2021/07/31,10:10,0.598,0.888,0.565,1.083,0.762,0.365,0.630,0.590,�k�k��,4.9,��
2021/07/31,10:20,0.598,0.890,0.566,1.080,0.763,0.365,0.631,0.591,�k�k��,5.6,��
2021/07/31,10:30,0.599,0.891,0.565,1.082,0.765,0.365,0.630,0.590,�k�k��,5.7,��
2021/07/31,10:40,0.599,0.890,0.565,1.079,0.764,0.364,0.631,0.591,�k�k��,5.9,��
2021/07/31,10:50,0.599,0.889,0.566,1.081,0.765,0.365,0.630,0.591,�k�k��,5.8,��
2021/07/31,11:00,0.600,0.891,0.566,1.083,0.766,0.364,0.631,0.592,�k�k��,6.1,��
2021/07/31,11:10,0.600,0.893,0.565,1.084,0.765,0.364,0.632,0.591,�k�k��,6.6,��
2021/07/31,11:20,0.600,0.892,0.566,1.084,0.766,0.365,0.632,0.591,�k�k��,7.0,��
2021/07/31,11:30,0.600,0.891,0.566,1.083,0.767,0.366,0.631,0.592,�k�k��,6.9,��
2021/07/31,11:40,0.601,0.892,0.567,1.080,0.767,0.367,0.632,0.591,�k�k��,6.7,��
2021/07/31,11:50,0.602,0.891,0.567,1.081,0.767,0.365,0.632,0.592,�k�k��,6.7,��
2021/07/31,12:00,0.601,0.895,0.567,1.082,0.767,0.366,0.632,0.591,�k�k��,7.3,��
2021/07/31,12:10,0.603,0.892,0.566,1.082,0.767,0.365,0.633,0.593,�k�k��,7.0,��
2021/07/31,12:20,0.602,0.895,0.567,1.081,0.767,0.366,0.632,0.592,�k�k��,6.8,��
2021/07/31,12:30,0.602,0.894,0.569,1.080,0.768,0.365,0.634,0.593,�k�k��,6.4,��
2021/07/31,12:40,0.602,0.894,0.569,1.083,0.768,0.366,0.632,0.591,�k�k��,6.8,��
2021/07/31,12:50,0.603,0.898,0.568,1.083,0.768,0.365,0.634,0.592,�k�k��,6.8,��
2021/07/31,13:00,0.604,0.895,0.567,1.081,0.769,0.365,0.634,0.592,�k�k��,7.8,��
2021/07/31,13:10,0.603,0.895,0.570,1.083,0.771,0.367,0.634,0.592,�k�k��,6.7,��
2021/07/31,13:20,0.602,0.896,0.568,1.081,0.769,0.366,0.632,0.593,�k�k��,7.3,��
2021/07/31,13:30,0.603,0.897,0.569,1.082,0.769,0.367,0.632,0.593,�k�k��,7.8,��
2021/07/31,13:40,0.603,0.896,0.568,1.083,0.771,0.366,0.633,0.593,�k�k��,8.2,��
2021/07/31,13:50,0.604,0.896,0.567,1.082,0.770,0.366,0.633,0.593,�k�k��,8.3,�L
2021/07/31,14:00,0.603,0.894,0.568,1.086,0.772,0.366,0.633,0.592,�k�k��,8.2,�L
2021/07/31,14:10,0.605,0.893,0.566,1.083,0.771,0.367,0.632,0.592,�k�k��,8.2,��
2021/07/31,14:20,0.602,0.896,0.567,1.087,0.771,0.366,0.633,0.593,�k�k��,9.6,�L
2021/07/31,14:30,0.604,0.897,0.568,1.086,0.770,0.366,0.633,0.591,�k�k��,10.0,�L
2021/07/31,14:40,0.601,0.893,0.567,1.086,0.771,0.365,0.632,0.592,�k,7.8,�L
2021/07/31,14:50,0.601,0.891,0.565,1.083,0.768,0.365,0.633,0.591,�k,7.3,�L
2021/07/31,15:00,0.599,0.889,0.566,1.084,0.768,0.364,0.632,0.590,�k,8.2,�L
2021/07/31,15:10,0.597,0.892,0.566,1.081,0.766,0.365,0.630,0.590,�k,6.7,�L
2021/07/31,15:20,0.598,0.888,0.565,1.082,0.767,0.365,0.630,0.589,�k,7.5,�L
2021/07/31,15:30,0.597,0.890,0.565,1.080,0.765,0.365,0.630,0.589,�k,7.8,�L
2021/07/31,15:40,0.595,0.882,0.562,1.079,0.761,0.363,0.628,0.587,�k,7.1,�L
2021/07/31,15:50,0.591,0.877,0.559,1.072,0.758,0.363,0.624,0.586,�k,6.9,�L
2021/07/31,16:00,0.591,0.875,0.558,1.070,0.755,0.363,0.625,0.587,�k,5.6,�L
2021/07/31,16:10,0.592,0.876,0.558,1.066,0.756,0.363,0.624,0.585,�k,5.5,�L
2021/07/31,16:20,0.590,0.874,0.560,1.062,0.753,0.363,0.624,0.586,�k,5.9,�L
2021/07/31,16:30,0.589,0.872,0.559,1.064,0.752,0.362,0.625,0.586,�k,6.2,�L
2021/07/31,16:40,0.589,0.872,0.556,1.062,0.753,0.362,0.623,0.584,�k,6.6,�L
2021/07/31,16:50,0.589,0.870,0.556,1.059,0.750,0.362,0.622,0.584,�k,6.5,�L
2021/07/31,17:00,0.588,0.868,0.556,1.058,0.750,0.361,0.622,0.584,�k,6.0,�L
2021/07/31,17:10,0.587,0.870,0.555,1.054,0.750,0.362,0.622,0.584,�k,6.8,�L
2021/07/31,17:20,0.587,0.869,0.555,1.055,0.750,0.361,0.623,0.583,�k,6.1,�L
2021/07/31,17:30,0.587,0.866,0.554,1.055,0.750,0.361,0.622,0.584,�k�k��,6.1,�L
2021/07/31,17:40,0.586,0.867,0.554,1.053,0.748,0.362,0.623,0.584,�k,6.0,�L
2021/07/31,17:50,0.588,0.867,0.554,1.054,0.747,0.360,0.622,0.583,�k,5.6,�L
2021/07/31,18:00,0.586,0.868,0.554,1.053,0.748,0.360,0.623,0.584,�k,5.3,��
2021/07/31,18:10,0.586,0.867,0.552,1.052,0.747,0.361,0.621,0.582,�k,5.3,�L
2021/07/31,18:20,0.587,0.866,0.553,1.051,0.747,0.362,0.622,0.584,�k,5.0,�L
2021/07/31,18:30,0.585,0.865,0.554,1.050,0.746,0.361,0.622,0.584,�k,5.8,�L
2021/07/31,18:40,0.584,0.866,0.553,1.050,0.747,0.360,0.623,0.584,�k,5.8,�L
2021/07/31,18:50,0.585,0.863,0.551,1.048,0.745,0.360,0.619,0.583,�k,6.9,�L
2021/07/31,19:00,0.584,0.862,0.551,1.044,0.741,0.360,0.620,0.583,�k,5.9,�L
2021/07/31,19:10,0.582,0.861,0.551,1.044,0.742,0.359,0.619,0.582,�k,5.8,�L
2021/07/31,19:20,0.582,0.858,0.551,1.044,0.742,0.360,0.620,0.583,�k,6.1,�L
2021/07/31,19:30,0.581,0.856,0.550,1.035,0.739,0.358,0.620,0.582,�k,7.3,�L
2021/07/31,19:40,0.580,0.853,0.550,1.037,0.737,0.358,0.618,0.581,�k,7.8,�L
2021/07/31,19:50,0.581,0.851,0.548,1.036,0.736,0.357,0.618,0.580,�k,7.3,�L
2021/07/31,20:00,0.580,0.852,0.548,1.035,0.735,0.359,0.617,0.580,�k,6.0,�L
2021/07/31,20:10,0.579,0.852,0.547,1.035,0.736,0.359,0.617,0.580,�k,6.9,�L
2021/07/31,20:20,0.579,0.854,0.547,1.032,0.735,0.358,0.618,0.579,�k,7.0,�L
2021/07/31,20:30,0.578,0.852,0.547,1.034,0.735,0.358,0.616,0.580,�k,6.1,�L
2021/07/31,20:40,0.579,0.850,0.548,1.034,0.735,0.357,0.616,0.580,�k,6.4,�L
2021/07/31,20:50,0.577,0.850,0.548,1.032,0.732,0.357,0.615,0.578,�k,4.8,�L
2021/07/31,21:00,0.576,0.849,0.547,1.032,0.732,0.355,0.616,0.578,�k,6.6,�L
2021/07/31,21:10,0.577,0.851,0.549,1.031,0.732,0.357,0.614,0.580,�k,7.3,�L
2021/07/31,21:20,0.577,0.850,0.547,1.031,0.733,0.358,0.616,0.579,�k,6.2,�L
2021/07/31,21:30,0.576,0.849,0.547,1.032,0.733,0.356,0.616,0.579,�k,7.6,�L
2021/07/31,21:40,0.575,0.847,0.546,1.030,0.732,0.356,0.616,0.578,�k,5.6,�L
2021/07/31,21:50,0.576,0.847,0.546,1.031,0.731,0.357,0.615,0.579,�k,5.0,�L
2021/07/31,22:00,0.575,0.847,0.546,1.029,0.729,0.356,0.615,0.579,�k,4.9,�L
2021/07/31,22:10,0.573,0.846,0.545,1.026,0.729,0.356,0.614,0.578,�k,5.8,�L
2021/07/31,22:20,0.576,0.845,0.545,1.028,0.727,0.355,0.614,0.577,�k,6.3,�L
2021/07/31,22:30,0.573,0.847,0.544,1.024,0.726,0.355,0.614,0.575,�k,4.1,�L
2021/07/31,22:40,0.575,0.845,0.545,1.028,0.725,0.355,0.612,0.577,�k,4.7,�L
2021/07/31,22:50,0.573,0.847,0.546,1.028,0.725,0.355,0.613,0.577,�k,5.0,�L
2021/07/31,23:00,0.574,0.847,0.546,1.028,0.726,0.354,0.614,0.578,�k,5.2,�L
2021/07/31,23:10,0.574,0.848,0.546,1.028,0.725,0.355,0.614,0.578,�k,5.6,�L
2021/07/31,23:20,0.576,0.849,0.546,1.031,0.727,0.355,0.614,0.578,�k�k��,4.9,�L
2021/07/31,23:30,0.576,0.848,0.547,1.032,0.728,0.355,0.615,0.578,�k�k��,5.7,�L
2021/07/31,23:40,0.576,0.850,0.548,1.030,0.730,0.355,0.615,0.578,�k�k��,4.3,�L
2021/07/31,23:50,0.576,0.851,0.546,1.032,0.729,0.357,0.614,0.578,�k�k��,4.8,�L
